Flag for Germany Weather past 2 weeks in Norden, Lower Saxony, Germany

Now
63 °F

Fog.


Feels Like: 63 °F
Forecast: 60 / 62 °F
Wind: 8 mph from North

Location: Norderney

Current Time: Sep 20, 2014 at 10:45:13 PM

Latest Report: Sep 20, 2014 at 10:00 PM


Visibility: 1 mi

Pressure: 29.95 "Hg

Humidity: 93%

Dew point: 61 °F

Location of NordenLocation

Historic Weather in Norden — Graph

°F

Norden temperature yesterday

Maximum temperature yesterday: 69 °F (at 3:00 PM)
Minimum temperature yesterday: 58 °F (at 8:00 AM)
Average temperature yesterday: 64 °F

Past Weeks' High & Low Weather Summary

 TemperatureHumidityPressure
High74 °F (Sep 17, 2:00 PM)98% (Sep 6, 8:00 AM)30.31 "Hg (Sep 6, 8:00 AM)
Low58 °F (Sep 9, 8:00 AM)59% (Sep 17, 2:00 PM)29.87 "Hg (Sep 19, 6:00 AM)
Average63 °F83%30.05 "Hg
* Reported Sep 5 9:00 PM — Sep 20 9:00 PM, Norden, Weather by CustomWeather, © 2014

Note: Actual official high and low records may vary slightly from our data, if they occured in-between our weather recording intervals... More about our weather records

Advertising

Norden weather history for previous 24 hours

 ConditionsComfort  
Time TempWeatherWind HumidityBarometerVisibility
9:00 PM
Sep 20
63 °FFog.6 mph95%29.94 "Hg1 mi
8:00 PM64 °FFog.8 mph92%29.93 "Hg1 mi
3:00 PM67 °FFog.2 mph83%29.93 "Hg4 mi
2:00 PM67 °FFog.2 mph82%29.93 "Hg4 mi
1:00 PM67 °FFog.2 mph81%29.94 "Hg4 mi
12:00 PM66 °FFog.3 mph83%29.94 "Hg2 mi
11:00 AM67 °FScattered clouds.2 mph77%29.93 "Hg4 mi
10:00 AM65 °FFog.2 mph85%29.93 "Hg2 mi
9:00 AM63 °FFog.1 mph91%29.93 "Hg2 mi
8:00 AM61 °FFog.3 mph95%29.93 "Hg2 mi
7:00 AM60 °FFog.3 mph94%29.92 "Hg2 mi
6:00 AM60 °FFog.3 mph95%29.91 "Hg3 mi
5:00 AM60 °FFog.3 mph94%29.91 "Hg1 mi
4:00 AM61 °FFog.2 mph93%29.91 "Hg1 mi
3:00 AM62 °FFog.3 mph91%29.91 "Hg1 mi
2:00 AM62 °FFog.3 mph91%29.90 "Hg1 mi
1:00 AM63 °FFog.3 mph92%29.91 "Hg1 mi
12:00 AM64 °FFog.3 mph86%29.91 "Hg2 mi
11:00 PM
Sep 19
65 °FFog.5 mph85%29.91 "Hg3 mi
10:00 PM66 °FFog.6 mph85%29.91 "Hg2 mi
Weather by CustomWeather, © 2014

See weather overviewHow to use our weather pages